This is the latest recevied weather packets stored in our database for station/object JO1YDG-13. If no packets are shown the sender has not sent any weather packets the latest 10 day(s).
| Time | Temp. | Humidity | Pressure | Rain* | Wind** | Luminosity | Snow |
|---|---|---|---|---|---|---|---|
| 1778035683 | 17.22° C | 53% | 993.4 hPa | 0 mm | - | - | - |
| 1778035385 | 17.22° C | 54% | 993.4 hPa | 0 mm | - | - | - |
| 1778035085 | 16.67° C | 54% | 993.5 hPa | 0 mm | - | - | - |
| 1778034784 | 17.22° C | 54% | 993.5 hPa | 0 mm | - | - | - |
| 1778034483 | 17.22° C | 55% | 993.5 hPa | 0 mm | - | - | - |
| 1778034183 | 17.22° C | 54% | 993.8 hPa | 0 mm | - | - | - |
| 1778033885 | 17.22° C | 54% | 993.8 hPa | 0 mm | - | - | - |
| 1778033585 | 17.22° C | 54% | 993.9 hPa | 0 mm | - | - | - |
| 1778033284 | 16.67° C | 55% | 993.9 hPa | 0 mm | - | - | - |
| 1778032984 | 16.67° C | 57% | 993.9 hPa | 0 mm | - | - | - |
| 1778032684 | 16.11° C | 58% | 994.2 hPa | 0 mm | - | - | - |
| 1778032384 | 16.11° C | 58% | 994.2 hPa | 0 mm | - | - | - |
| 1778032084 | 16.11° C | 58% | 994.3 hPa | 0 mm | - | - | - |
| 1778031784 | 15.56° C | 58% | 994.3 hPa | 0 mm | - | - | - |
| 1778031483 | 16.11° C | 58% | 994.5 hPa | 0 mm | - | - | - |
| 1778031183 | 15.56° C | 60% | 994.5 hPa | 0 mm | - | - | - |
| 1778030883 | 15.56° C | 60% | 994.5 hPa | 0 mm | - | - | - |
| 1778030583 | 15° C | 61% | 994.7 hPa | 0 mm | - | - | - |
| 1778030283 | 14.44° C | 62% | 994.7 hPa | 0 mm | - | - | - |
| 1778029984 | 14.44° C | 63% | 994.9 hPa | 0 mm | - | - | - |
| 1778029684 | 14.44° C | 63% | 994.9 hPa | 0 mm | - | - | - |
| 1778029384 | 14.44° C | 62% | 994.9 hPa | 0 mm | - | - | - |
| 1778029084 | 15° C | 62% | 995 hPa | 0 mm | - | - | - |
| 1778028784 | 15° C | 63% | 995 hPa | 0 mm | - | - | - |
| 1778028484 | 14.44° C | 63% | 995.1 hPa | 0 mm | - | - | - |
* Rain latest hour (hover to see other rain measurements)
** Current wind speed in m/s (hover to see current wind gust speed)